STARLINK-31220, 59039

Orbit data source: Space-Track

STARLINK-31220, 59039 is a payload satellite owned by SpaceX/Seattle (US) in LEO that was launched on Sun, 25 Feb 2024 UTC via an FALCON 9 launch vehicle from the Air Force Eastern Test Range (AFETR). Payload-class satellites include a variety of spacecraft equipped with specific instruments for various scientific and technological missions. These include communications satellites like Starlink; space stations such as the ISS; scientific satellites like the Hubble; Earth observation satellites from companies like Planet Labs, Umbra, and HawkEye 360; GPS; miniature CubeSats for education and research; and military/defense satellites.

Loading next visibility...
Identifier
59039, 2024-038S
Orbit
LEO
Country
Flag of USUS
Related business
Manufacturer
SpaceX/Seattle
Mission
Operational Commercial Communications
Bus & Motor
STARLINK V2M, Unknown motor
Mass
730 kg wet, ~700 kg dry
Launch date (UTC)
2024-02-25 (2 years ago)
Launch vehicle
FALCON 9
Launch site
Air Force Eastern Test Range (AFETR)
Object type
Payload
Rocket body
Debris
Shape & HBR
Box + 2 Pan, 17.7 m
Radar Cross Section
33.884 m², Large (>1 m²)

Expand to show TLE details & history
Last TLE update: 2 days ago

TLE from 2 days ago
0 STARLINK-31220
1 59039U 24038S   26171.05264500  .00000727  00000-0  35942-4 0  9995
2 59039  43.0031 168.8922 0001603 275.2592  84.8077 15.27577979130419
Epoch: 2026-06-20T01:15Z
TLE epoch observation values (Epoch: 2026-06-20T01:15:48.527Z)
Latitude
0.00002°
Longitude
-118.33278°
Altitude
482.732 km
Speed
7.626 km/s
True Right ascension
11h 15m 34s
True Declination
0° 00' 00"
Sunlit
Object was in daylight at epoch
Visualization orbit readout
Latitude
Unknown
Longitude
Unknown
Altitude
Unknown
Speed
Unknown
Apparent Right ascension
Unknown
Apparent Declination
Unknown
Sunlit
N/A
Visualization observer readout
Local Sidereal Time
21:54:58
Azimuth
Unknown
Elevation
Unknown
Doppler factor
Unknown
Orbital elements
Apogee altitude
486.1 km
Perigee altitude
483.9 km
Semi-major axis
6,863.137 km
Eccentricity
0.00016
Inclination
43.0031°
RAAN
168.8922°
Arg. of periapsis
275.2592°
True anomaly
84.82599°
Mean anomaly
84.8077°
Eccentric anomaly
84.81685°
Mean motion
3.81733 °/min
Orbital period
94.31 mins
BSTAR
0.000035942
Loading maneuver chart data...
Computing Atmospheric mass density...
Loading historical data...
Loading historical data...
Loading historical data...
Loading historical data...
Loading historical data...
Loading historical data...
Loading historical data...

Documentation

Showing up to 5 results
|